SWR96A LSZH-LHBP

Flight info

Callsign SWR96A
Flight time 1h 30m
Altitude 29000
Route DEGES Z2 TUNUM/N0416F350 Z209 BIRGI DCT SETAL DCT GOTAR DCT SIRDU DCT OGVUN DCT VAJDI
Aircraft A20N/M-SDE2E3FGHIJ1RWXY/LB1

Departure

Time 2026-05-04 10:58
Airport Zürich Airport (LSZH)

Arrival

Time 2026-05-04 12:28
Airport Budapest Liszt Ferenc International Airport (LHBP)
Time Latitude Longitude Altitude Speed Heading
2026-05-04 10:20 47.45184 8.55751 1406 ft 0 kts 186°
2026-05-04 10:46 47.45190 8.55751 1412 ft 3 kts 186°
2026-05-04 10:46 47.45217 8.55756 1406 ft 3 kts 187°
2026-05-04 10:47 47.45242 8.55764 1412 ft 3 kts 209°
2026-05-04 10:47 47.45259 8.55789 1410 ft 3 kts 266°
2026-05-04 10:47 47.45260 8.55797 1409 ft 1 kts 276°
2026-05-04 10:51 47.45270 8.55655 1406 ft 9 kts 276°
2026-05-04 10:52 47.45299 8.55562 1409 ft 11 kts 325°
2026-05-04 10:52 47.45377 8.55509 1410 ft 14 kts 337°
2026-05-04 10:52 47.45478 8.55444 1405 ft 17 kts 347°
2026-05-04 10:54 47.45576 8.56391 1415 ft 14 kts 50°
2026-05-04 10:54 47.45595 8.56481 1414 ft 14 kts 93°
2026-05-04 10:56 47.45589 8.57009 1423 ft 4 kts 33°
2026-05-04 10:56 47.45614 8.57016 1424 ft 4 kts
2026-05-04 10:56 47.45649 8.56999 1424 ft 6 kts 327°
2026-05-04 10:57 47.45669 8.56939 1423 ft 0 kts 274°
2026-05-04 10:57 47.45676 8.56821 1421 ft 45 kts 275°
2026-05-04 10:57 47.45737 8.55900 1409 ft 129 kts 276°
2026-05-04 10:58 47.45859 8.54284 1467 ft 183 kts 277°
2026-05-04 10:58 47.46012 8.52367 2167 ft 194 kts 278°
2026-05-04 10:58 47.46104 8.50311 3022 ft 207 kts 269°
2026-05-04 10:58 47.45902 8.48112 3894 ft 222 kts 256°
2026-05-04 10:59 47.45243 8.46064 4840 ft 221 kts 232°
2026-05-04 10:59 47.44295 8.44268 5852 ft 222 kts 236°
2026-05-04 10:59 47.43601 8.42238 6549 ft 229 kts 249°
2026-05-04 10:59 47.43090 8.39987 6887 ft 233 kts 251°
2026-05-04 11:00 47.42577 8.37719 6982 ft 232 kts 242°
2026-05-04 11:01 47.38025 8.43395 8079 ft 248 kts 32°
2026-05-04 11:02 47.39569 8.44481 8985 ft 248 kts 23°
2026-05-04 11:02 47.41109 8.45669 9798 ft 252 kts 38°
2026-05-04 11:05 47.45528 8.90542 18029 ft 380 kts 105°
2026-05-04 11:06 47.44970 8.94366 18686 ft 383 kts 105°
2026-05-04 11:06 47.44419 8.98234 19293 ft 387 kts 105°
2026-05-04 11:06 47.43864 9.02146 19895 ft 390 kts 105°
2026-05-04 11:06 47.43302 9.06082 20454 ft 394 kts 105°
2026-05-04 11:08 47.43542 9.35202 24225 ft 429 kts 79°
2026-05-04 11:10 47.46954 9.66245 27191 ft 447 kts 97°
2026-05-04 11:12 47.45132 9.98933 28998 ft 461 kts 96°
2026-05-04 11:12 47.44860 10.03712 29006 ft 461 kts 96°
2026-05-04 11:12 47.44318 10.13100 29016 ft 461 kts 96°
2026-05-04 11:13 47.44225 10.14700 29015 ft 461 kts 96°
2026-05-04 11:13 47.43324 10.23463 29015 ft 460 kts 103°
2026-05-04 11:14 47.42069 10.32720 29022 ft 459 kts 103°
2026-05-04 11:16 47.37011 10.69626 29018 ft 458 kts 103°
2026-05-04 11:16 47.35729 10.78812 29012 ft 458 kts 103°
2026-05-04 11:17 47.34437 10.88006 29001 ft 457 kts 103°
2026-05-04 11:19 47.29206 11.24684 28991 ft 456 kts 103°
2026-05-04 11:19 47.27881 11.33829 29003 ft 456 kts 103°
2026-05-04 11:20 47.26550 11.42972 28992 ft 456 kts 103°
2026-05-04 11:20 47.26132 11.52336 28990 ft 459 kts 83°
2026-05-04 11:22 47.32833 11.83658 28989 ft 457 kts 71°
2026-05-04 11:22 47.33779 11.88132 28992 ft 458 kts 76°
2026-05-04 11:23 47.34550 11.97418 28992 ft 457 kts 91°
2026-05-04 11:25 47.33223 12.30156 29010 ft 457 kts 94°
2026-05-04 11:25 47.32820 12.39515 29010 ft 457 kts 94°
2026-05-04 11:27 47.30907 12.81598 29013 ft 458 kts 94°
2026-05-04 11:28 47.30461 12.90955 29017 ft 458 kts 94°
2026-05-04 11:28 47.30006 13.00317 29016 ft 458 kts 94°
2026-05-04 11:29 47.29625 13.08084 29027 ft 458 kts 94°
2026-05-04 11:29 47.29156 13.17452 29022 ft 458 kts 94°
2026-05-04 11:33 47.25660 13.82969 29036 ft 461 kts 95°
2026-05-04 11:33 47.25127 13.92396 29037 ft 463 kts 95°
2026-05-04 11:34 47.24585 14.01828 29035 ft 461 kts 95°
2026-05-04 11:34 47.24037 14.11226 29043 ft 459 kts 95°
2026-05-04 11:35 47.23482 14.20630 29034 ft 464 kts 95°
2026-05-04 11:35 47.22697 14.30009 29048 ft 461 kts 99°
2026-05-04 11:36 47.21662 14.39329 29042 ft 462 kts 98°
2026-05-04 11:36 47.20639 14.48635 29043 ft 461 kts 99°
2026-05-04 11:37 47.19597 14.57945 29049 ft 461 kts 99°
2026-05-04 11:37 47.18544 14.67240 29046 ft 461 kts 99°
2026-05-04 11:38 47.17484 14.76529 29057 ft 461 kts 99°
2026-05-04 11:38 47.16419 14.85801 29054 ft 460 kts 99°
2026-05-04 11:39 47.15341 14.95099 29050 ft 460 kts 99°
2026-05-04 11:41 47.11536 15.27435 29053 ft 458 kts 99°
2026-05-04 11:41 47.10430 15.36665 29049 ft 458 kts 99°
2026-05-04 11:42 47.09321 15.45871 29053 ft 458 kts 99°
2026-05-04 11:42 47.08206 15.55064 29050 ft 456 kts 99°
2026-05-04 11:43 47.07088 15.64217 29055 ft 456 kts 99°
2026-05-04 11:43 47.05969 15.73321 29049 ft 456 kts 99°
2026-05-04 11:44 47.04836 15.82464 29044 ft 456 kts 99°
2026-05-04 11:44 47.03693 15.91623 29043 ft 456 kts 99°
2026-05-04 11:45 47.02545 16.00768 29045 ft 457 kts 100°
2026-05-04 11:45 47.01387 16.09928 29054 ft 457 kts 100°
2026-05-04 11:46 47.00371 16.19134 29051 ft 457 kts 91°
2026-05-04 11:46 47.01163 16.28282 29063 ft 454 kts 71°
2026-05-04 11:47 47.03237 16.37007 29060 ft 453 kts 69°
2026-05-04 11:47 47.05306 16.45747 29060 ft 453 kts 69°
2026-05-04 11:48 47.07362 16.54500 29050 ft 454 kts 69°
2026-05-04 11:48 47.09423 16.63312 29049 ft 454 kts 69°
2026-05-04 11:49 47.11473 16.72106 29057 ft 454 kts 69°
2026-05-04 11:49 47.13508 16.80875 29053 ft 454 kts 69°
2026-05-04 11:50 47.15538 16.89656 29056 ft 454 kts 70°
2026-05-04 11:50 47.17563 16.98448 29065 ft 453 kts 70°
2026-05-04 11:51 47.19579 17.07243 29068 ft 453 kts 70°
2026-05-04 11:51 47.21589 17.16036 29075 ft 453 kts 70°
2026-05-04 11:52 47.23590 17.24840 29076 ft 454 kts 70°
2026-05-04 11:52 47.25586 17.33655 29073 ft 454 kts 70°
2026-05-04 11:53 47.27737 17.42396 29078 ft 453 kts 68°
2026-05-04 11:53 47.29958 17.51101 29080 ft 453 kts 68°
2026-05-04 11:55 47.38160 17.85969 25254 ft 441 kts 81°
2026-05-04 11:55 47.38398 17.90449 24703 ft 436 kts 90°
2026-05-04 11:56 47.38307 17.94950 24100 ft 433 kts 92°
2026-05-04 11:56 47.38209 17.99303 23596 ft 427 kts 92°
2026-05-04 11:56 47.38117 18.03712 23014 ft 421 kts 92°
2026-05-04 11:56 47.38027 18.08001 22485 ft 415 kts 92°
2026-05-04 11:57 47.37936 18.12227 21958 ft 409 kts 92°
2026-05-04 11:57 47.37844 18.16338 21443 ft 404 kts 92°
2026-05-04 11:57 47.37749 18.20505 20922 ft 398 kts 92°
2026-05-04 11:57 47.37632 18.24507 20413 ft 394 kts 96°
2026-05-04 11:58 47.37118 18.28449 19909 ft 389 kts 107°
2026-05-04 11:58 47.36106 18.32118 19412 ft 383 kts 118°
2026-05-04 11:58 47.34750 18.35483 18912 ft 380 kts 122°
2026-05-04 11:58 47.33389 18.38793 18421 ft 376 kts 121°
2026-05-04 11:59 47.32043 18.42088 17883 ft 372 kts 121°
2026-05-04 11:59 47.30717 18.45335 17396 ft 367 kts 121°
2026-05-04 11:59 47.29405 18.48545 16901 ft 363 kts 121°
2026-05-04 11:59 47.28105 18.51717 16438 ft 359 kts 122°
2026-05-04 12:00 47.26820 18.54850 15963 ft 355 kts 122°
2026-05-04 12:00 47.25546 18.57949 15502 ft 352 kts 122°
2026-05-04 12:00 47.24284 18.61016 15037 ft 349 kts 122°
2026-05-04 12:00 47.23031 18.64060 14592 ft 346 kts 122°
2026-05-04 12:01 47.21789 18.67074 14123 ft 343 kts 122°
2026-05-04 12:01 47.20590 18.70100 13646 ft 341 kts 115°
2026-05-04 12:02 47.24702 18.87568 11140 ft 330 kts 59°
2026-05-04 12:03 47.25926 18.90424 10598 ft 332 kts 59°
2026-05-04 12:03 47.27153 18.93302 10184 ft 330 kts 59°
2026-05-04 12:03 47.28354 18.96130 10042 ft 320 kts 59°
2026-05-04 12:03 47.29511 18.98852 9986 ft 305 kts 60°
2026-05-04 12:04 47.30698 19.01373 9853 ft 295 kts 51°
2026-05-04 12:04 47.32131 19.03513 9641 ft 294 kts 43°
2026-05-04 12:04 47.33655 19.05531 9285 ft 294 kts 43°
2026-05-04 12:04 47.35150 19.07529 8936 ft 293 kts 43°
2026-05-04 12:05 47.36650 19.09520 8694 ft 287 kts 39°
2026-05-04 12:05 47.38393 19.10818 8507 ft 279 kts 12°
2026-05-04 12:05 47.40308 19.10810 8355 ft 268 kts 343°
2026-05-04 12:05 47.41901 19.09587 8065 ft 259 kts 315°
2026-05-04 12:06 47.43113 19.07597 7767 ft 257 kts 304°
2026-05-04 12:06 47.44182 19.05482 7462 ft 257 kts 304°
2026-05-04 12:06 47.45260 19.03415 7158 ft 257 kts 306°
2026-05-04 12:06 47.46429 19.01334 7026 ft 256 kts 308°
2026-05-04 12:07 47.47591 18.99369 6983 ft 258 kts 309°
2026-05-04 12:07 47.48787 18.97409 6945 ft 256 kts 309°
2026-05-04 12:07 47.49987 18.95451 6673 ft 258 kts 309°
2026-05-04 12:07 47.51200 18.93480 6275 ft 261 kts 309°
2026-05-04 12:08 47.52479 18.91559 6018 ft 263 kts 321°
2026-05-04 12:08 47.54160 18.90498 5725 ft 267 kts 349°
2026-05-04 12:08 47.55975 18.90743 5584 ft 261 kts 20°
2026-05-04 12:08 47.57473 18.92146 5465 ft 253 kts 44°
2026-05-04 12:09 47.58679 18.94006 5262 ft 249 kts 56°
2026-05-04 12:09 47.59307 18.96326 5027 ft 239 kts 90°
2026-05-04 12:09 47.59040 18.98781 4992 ft 249 kts 120°
2026-05-04 12:09 47.58034 19.00782 4983 ft 244 kts 136°
2026-05-04 12:10 47.56889 19.02600 4906 ft 239 kts 137°
2026-05-04 12:10 47.55766 19.04381 4668 ft 232 kts 137°
2026-05-04 12:10 47.54713 19.06129 4403 ft 224 kts 134°
2026-05-04 12:10 47.53693 19.07804 4209 ft 213 kts 136°
2026-05-04 12:11 47.52716 19.09392 4040 ft 204 kts 137°
2026-05-04 12:11 47.51790 19.10893 3856 ft 192 kts 137°
2026-05-04 12:11 47.50886 19.12346 3440 ft 193 kts 137°
2026-05-04 12:11 47.49971 19.13821 2985 ft 193 kts 136°
2026-05-04 12:12 47.49119 19.15210 2746 ft 173 kts 135°
2026-05-04 12:12 47.48386 19.16502 2543 ft 153 kts 134°
2026-05-04 12:12 47.47743 19.17667 2379 ft 142 kts 137°
2026-05-04 12:12 47.47092 19.18664 2056 ft 140 kts 137°
2026-05-04 12:13 47.46394 19.19669 1623 ft 140 kts 129°
2026-05-04 12:14 47.40023 19.29992 3915 ft 244 kts 138°
2026-05-04 12:15 47.38797 19.31246 4757 ft 195 kts 158°
2026-05-04 12:15 47.37577 19.32064 4890 ft 195 kts 160°
2026-05-04 12:15 47.36281 19.32893 5014 ft 214 kts 160°
2026-05-04 12:15 47.34853 19.33781 5668 ft 227 kts 160°
2026-05-04 12:16 47.33376 19.34627 6431 ft 228 kts 169°
2026-05-04 12:16 47.31805 19.34570 6791 ft 230 kts 199°
2026-05-04 12:16 47.30470 19.33303 6961 ft 234 kts 229°
2026-05-04 12:16 47.29570 19.31289 6990 ft 235 kts 245°
2026-05-04 12:17 47.29305 19.28960 7007 ft 237 kts 275°
2026-05-04 12:17 47.29921 19.26639 7008 ft 260 kts 304°
2026-05-04 12:17 47.31116 19.24628 7003 ft 261 kts 313°
2026-05-04 12:17 47.32481 19.22713 6998 ft 282 kts 315°
2026-05-04 12:18 47.33926 19.20730 7000 ft 283 kts 314°
2026-05-04 12:18 47.35344 19.18732 6999 ft 282 kts 313°
2026-05-04 12:18 47.36746 19.16693 7010 ft 282 kts 313°
2026-05-04 12:18 47.38128 19.14645 6988 ft 281 kts 313°
2026-05-04 12:19 47.39493 19.12614 6945 ft 274 kts 313°
2026-05-04 12:19 47.40778 19.10599 6886 ft 265 kts 310°
2026-05-04 12:19 47.41984 19.08615 6767 ft 256 kts 309°
2026-05-04 12:19 47.43157 19.06667 6631 ft 252 kts 309°
2026-05-04 12:20 47.44339 19.04709 6467 ft 257 kts 309°
2026-05-04 12:20 47.45532 19.02756 6320 ft 256 kts 310°
2026-05-04 12:20 47.46734 19.00812 6147 ft 258 kts 309°
2026-05-04 12:20 47.47939 18.98854 5954 ft 256 kts 309°
2026-05-04 12:21 47.49124 18.96924 5777 ft 252 kts 308°
2026-05-04 12:21 47.50315 18.94971 5605 ft 258 kts 308°
2026-05-04 12:21 47.51511 18.93017 5453 ft 256 kts 308°
2026-05-04 12:21 47.52814 18.91201 5262 ft 261 kts 326°
2026-05-04 12:22 47.54544 18.90367 5078 ft 265 kts 356°
2026-05-04 12:22 47.56349 18.90840 4868 ft 265 kts 26°
2026-05-04 12:22 47.57832 18.92433 4688 ft 267 kts 47°
2026-05-04 12:22 47.58946 18.94617 4470 ft 264 kts 70°
2026-05-04 12:23 47.59249 18.97212 4223 ft 252 kts 101°
2026-05-04 12:23 47.58698 18.99595 3986 ft 242 kts 128°
2026-05-04 12:23 47.57602 19.01440 3737 ft 238 kts 136°
2026-05-04 12:23 47.56523 19.03241 3551 ft 227 kts 136°
2026-05-04 12:24 47.55488 19.04911 3457 ft 214 kts 136°
2026-05-04 12:24 47.54518 19.06484 3381 ft 197 kts 137°
2026-05-04 12:24 47.53632 19.07915 3306 ft 181 kts 137°
2026-05-04 12:24 47.52826 19.09217 3212 ft 160 kts 138°
2026-05-04 12:25 47.52123 19.10360 3107 ft 143 kts 138°
2026-05-04 12:25 47.51472 19.11400 2946 ft 135 kts 139°
2026-05-04 12:25 47.50850 19.12405 2760 ft 130 kts 139°
2026-05-04 12:25 47.50245 19.13378 2582 ft 131 kts 137°
2026-05-04 12:26 47.49623 19.14379 2433 ft 131 kts 137°
2026-05-04 12:26 47.49016 19.15366 2322 ft 129 kts 138°
2026-05-04 12:26 47.48413 19.16360 2132 ft 132 kts 133°
2026-05-04 12:26 47.47828 19.17417 1897 ft 133 kts 134°
2026-05-04 12:27 47.47215 19.18411 1602 ft 133 kts 139°
2026-05-04 12:27 47.46582 19.19407 1309 ft 128 kts 139°
2026-05-04 12:27 47.45974 19.20356 989 ft 126 kts 135°
2026-05-04 12:27 47.45344 19.21333 722 ft 134 kts 132°
2026-05-04 12:28 47.44717 19.22353 518 ft 132 kts 138°
2026-05-04 12:28 47.44117 19.23301 454 ft 116 kts 137°
2026-05-04 12:28 47.43677 19.23995 453 ft 71 kts 131°
2026-05-04 12:28 47.43433 19.24400 452 ft 37 kts 132°
2026-05-04 12:29 47.43308 19.24601 453 ft 21 kts 132°
2026-05-04 12:29 47.43212 19.24757 455 ft 21 kts 134°
2026-05-04 12:29 47.43140 19.24871 456 ft 21 kts 131°
2026-05-04 12:29 47.43103 19.25039 456 ft 17 kts 62°
2026-05-04 12:30 47.43174 19.25153 457 ft 16 kts 40°
2026-05-04 12:30 47.43247 19.25249 457 ft 9 kts 45°
2026-05-04 12:30 47.43300 19.25326 457 ft 13 kts 44°
2026-05-04 12:30 47.43337 19.25437 457 ft 12 kts 112°
2026-05-04 12:31 47.43298 19.25554 457 ft 12 kts 83°
2026-05-04 12:31 47.43356 19.25645 456 ft 14 kts 42°
2026-05-04 12:31 47.43437 19.25752 457 ft 17 kts 42°
2026-05-04 12:31 47.43457 19.25879 454 ft 15 kts 128°
2026-05-04 12:32 47.43430 19.25986 455 ft 11 kts 56°
2026-05-04 12:32 47.43556 19.26159 457 ft 11 kts 54°
2026-05-04 12:32 47.43535 19.26250 456 ft 11 kts 128°
2026-05-04 12:33 47.43487 19.26292 457 ft 8 kts 198°
2026-05-04 12:33 47.43452 19.26249 457 ft 5 kts 222°
2026-05-04 12:33 47.43451 19.26249 457 ft 0 kts 222°